User: anonymous   Login
Location: Cuzcurrita-R�o Tir�n
(42.5415°N, 2.9642°W)
Time: 15:25:45
(UTC+00:00)
Language:

BREEZE-M DEB (TANK) - Orbit

View from above orbital plane
View from above orbital plane
View from above satellite
View from above satellite

Ground track
Ground track

The orbit data is extracted from the following two-line orbital elements,

1 35875U 09050C   21104.51847780  .00000556  00000-0  25479-3 0  9996
2 35875  49.3159 199.1451 5979665 138.5951 287.0059  4.02143259167443
Epoch (UTC): 14 April 2021 12:26:36
Eccentricity: 0.5979665
inclination: 49.3159°
perigee height: 337 km
apogee height: 20314 km
right ascension of ascending node: 199.1451°
argument of perigee: 138.5951°
revolutions per day: 4.02143259
mean anomaly at epoch: 287.0059°
orbit number at epoch: 16744

The dashed part of the orbit path shows where the satellite is in the earth's shadow,  

DLR